Location: Eastchurch
(51.4000°N, 0.8667°E)
Time: 19:40:39
(UTC+00:00)

Radarsat Rocket - Pass Details

Date: 19 January 2026
Orbit: 933 x 1491 km, 100.5° (Epoch: 16 February)

Event Time Altitude Azimuth Distance (km) Brightness Sun altitude
Rises 17:54:26 0° 148° (SSE) 3,752 6.9 -13.7°
Reaches altitude 10° 17:57:00 10° 146° (SE) 2,751 6.2 -14.1°
Maximum altitude 18:02:57 64° 66° (ENE) 1,048 3.9 -15.0°
Drops below altitude 10° 18:08:42 10° 347° (NNW) 2,655 6.3 -15.9°
Sets 18:11:08 0° 344° (NNW) 3,611 7.0 -16.2°
